Regional Weather Roundup
Issued by NWS

Home | Current Version | Previous Version | Text Only | Print | Product List | Glossary On
Versions: 1 2 3 4 5 6 7 8 9 10 11 12 13 14 15 16 17 18 19 20 21 22 23 24 25 26 27 28 29 30 31 32 33 34 35 36 37 38 39 40 41 42 43 44 45 46 47 48 49 50
267
ASUS43 KLSX 201557
RWRMO

WEATHER SUMMARY FOR MISSOURI
NATIONAL WEATHER SERVICE SPRINGFIELD MO
1100 AM CDT SUN MAY 20 2018

NOTE: "FAIR" INDICATES FEW OR NO CLOUDS BELOW 12,000 FEET WITH NO
       SIGNIFICANT WEATHER AND/OR OBSTRUCTIONS TO VISIBILITY.
       CURRENT SKY AND/OR WEATHER CONDITIONS ARE NOT AVAILABLE FOR
       CHILLICOTHE AND FARMINGTON.

MOZ001>031-035>038-043-044-053-054-201700-
...NORTHERN AND WESTERN MISSOURI...

CITY           SKY/WX    TMP DP  RH WIND       PRES   REMARKS
KANSAS CTY INT CLOUDY    66  63  90 SE8       30.06F
LEE`S SUMMIT   PTSUNNY   66  64  93 N9        30.04F
ST JOSEPH      CLOUDY    66  65  96 E3        30.08S
CHILLICOTHE      N/A     70  64  81 VRB6      30.12R

$$
MOZ066>068-077>081-088>096-101>105-201700-
...SOUTHWEST MISSOURI...

CITY           SKY/WX    TMP DP  RH WIND       PRES   REMARKS
SPRINGFIELD    CLOUDY    70  63  78 E8        30.09S
JOPLIN         CLOUDY    70  65  84 E12       30.04F
BRANSON        PTSUNNY   73  63  68 N6        30.12S

$$
MOZ032>034-039>042-045>050-055>058-069>072-201700-
...CENTRAL MISSOURI...

CITY           SKY/WX    TMP DP  RH WIND       PRES   REMARKS
COLUMBIA       NOT AVBL
JEFFERSON CITY LGT RAIN  66  63  90 N9        30.11F
ROLLA          CLOUDY    66  63  90 N10       30.14F
SEDALIA        CLOUDY    68  67  96 SE9       30.07F
WARRENSBURG    PTSUNNY   64  63  94 N6        30.05F

$$
MOZ051-052-059>065-201700-
...EAST CENTRAL MISSOURI...

CITY           SKY/WX    TMP DP  RH WIND       PRES   REMARKS
ST LOUIS INTL  CLOUDY    74  65  73 SW7       30.12R THUNDER

$$
MOZ072>076-082>087-097>100-106>115-201700-
...SOUTH CENTRAL AND SOUTHEAST MISSOURI...

CITY           SKY/WX    TMP DP  RH WIND       PRES   REMARKS
CAPE GIRARDEAU FAIR      79  67  66 E7        30.10S
POPLAR BLUFF   FAIR      80  71  74 E7        30.09R
WEST PLAINS    CLOUDY    73  63  70 N9        30.14S

$$




USA.gov is the U.S. government's official web portal to all federal, state and local government web resources and services.